SCP
0 0 0 0 0 0 0 0 0 0 0 0 0 0 0 -0 0 0 0 0 0 0 0 3 4 2 0 0 2 2 0 0 0 0 0 0 0 0 0 0 0 0 0 0
0 0 0 0 0 0 0 0 0 0 0 0 0 0 0 -0 -0 -0 0 0 0 0 1 2 2 1 0 0 1 1 0 0 0 0 0 0 0 0 0 0 0 0 0 0
-0 0 0 0 0 0 0 0 -0 0 0 0 0 0 0 0 -0 -0 0 0 0 1 1 1 1 0 0 0 0 0 0 0 0 0 0 0 0 0 0 0 0 0 0 0
0 0 0 0 0 0 0 -0 0 0 0 -0 -0 -0 -0 0 -0 -0 0 0 1 1 0 1 0 0 0 0 0 0 0 0 0 0 0 0 0 0 0 0 0 0 0 0
0 0 0 0 0 0 -0 -0 0 0 -0 0 -0 0 -0 0 -0 -0 0 0 0 1 1 0 0 0 0 0 0 0 0 0 0 0 0 0 0 0 0 0 0 0 0 0
0 0 0 0 -0 -0 0 0 0 0 -0 -0 -0 -0 0 0 0 0 0 0 0 0 0 0 0 0 0 0 0 0 0 0 0 0 0 0 0 0 0 0 0 0 0 0
0 0 0 0 -0 0 0 0 -0 -0 -0 -0 -0 0 0 0 0 0 0 0 0 0 0 0 0 0 0 0 0 0 0 0 0 0 0 0 0 0 0 0 0 0 0 0
0 0 0 -0 0 0 0 0 -0 -0 -0 -0 0 0 0 0 0 0 0 0 0 0 0 0 0 0 0 0 0 0 0 0 0 0 0 0 0 0 0 0 0 0 0 0
0 0 0 0 0 0 0 0 -0 -0 -0 0 0 0 0 0 0 0 0 0 0 0 0 0 0 -0 0 0 0 0 0 0 0 0 0 0 0 0 0 0 0 0 0 0
0 0 0 -0 0 0 0 0 0 0 0 0 0 0 0 0 0 0 0 0 0 0 0 0 0 0 0 0 0 0 0 0 0 0 0 0 0 0 0 0 0 0 0 0
0 0 0 0 0 -0 -0 0 0 0 0 0 0 0 0 0 0 0 0 0 0 0 0 0 0 0 0 0 0 0 0 0 0 0 0 0 0 0 0 0 0 0 0 0
0 -0 0 -0 -0 -0 0 -0 0 0 0 0 0 0 0 0 0 0 0 0 0 0 0 0 0 0 0 0 0 0 0 0 0 0 0 0 0 0 -0 -0 -0 0 0 0
0 -0 -0 -0 0 0 -0 0 0 0 0 0 -0 -0 -0 0 0 0 0 0 0 0 0 0 0 0 0 0 0 0 0 0 0 0 0 0 0 0 -0 -0 -0 0 0 0
0 -0 0 -0 0 0 -0 0 0 0 -0 -0 0 0 0 0 0 0 0 0 0 0 0 0 0 0 0 0 0 0 0 0 0 0 0 0 0 0 0 0 0 0 0 0
-0 -0 -0 -0 0 0 0 0 0 -0 0 0 0 0 0 0 0 0 0 0 0 0 0 0 0 0 0 0 0 0 0 0 0 0 0 -0 -0 -0 0 0 0 0 0 0
-0 -0 -0 -0 0 0 0 0 0 0 0 -0 0 0 0 0 0 0 0 0 0 0 0 0 0 0 0 0 0 0 0 -0 -0 -0 -0 -0 -0 0 0 0 0 0 0 0
-0 -0 -0 -0 -0 0 0 0 0 0 0 0 0 0 0 0 0 0 0 0 0 0 0 0 0 0 0 0 0 0 0 -0 -0 -0 0 0 0 0 0 0 0 0 0 0
-0 -0 -0 0 -0 0 0 0 0 0 0 0 0 0 0 0 0 0 0 0 0 0 0 0 0 0 0 0 0 0 0 -0 -0 0 0 0 0 0 0 0 0 0 0 0
0 -0 0 0 -0 0 0 0 0 0 0 0 0 0 0 0 0 0 0 0 0 0 0 0 0 0 0 0 -0 0 0 0 0 0 0 0 0 0 0 0 0 0 0 0
0 0 0 0 -0 0 0 0 0 0 0 0 0 0 0 0 0 0 0 0 0 0 0 0 0 0 0 0 0 0 0 0 0 0 0 0 0 0 0 0 0 0 0 0
0 0 -0 -0 0 0 0 0 0 0 0 0 0 0 0 0 0 0 0 0 0 0 0 0 0 0 0 0 0 0 0 0 0 0 0 0 0 0 0 0 0 0 0 0
0 0 0 -0 -0 0 0 0 0 0 0 0 0 0 0 0 0 0 0 0 0 0 0 0 0 0 0 0 0 0 0 0 0 0 0 0 0 0 0 0 0 0 0 0
0 0 0 -0 -0 -0 0 0 0 0 0 0 0 0 0 0 0 0 0 0 0 0 0 0 0 0 0 0 0 0 0 0 0 0 0 0 0 0 0 0 0 0 0 0
-0 0 0 0 0 0 -0 0 0 0 0 0 0 0 0 0 0 0 0 0 0 0 0 -0 -0 0 0 0 0 0 0 0 0 0 0 0 0 0 0 0 0 0 0 0
-0 -0 -0 0 0 0 0 0 0 0 0 0 0 0 0 0 0 -0 -0 -0 -0 -0 -0 0 0 0 0 0 0 0 0 0 0 0 0 0 0 0 0 0 0 0 0 0
-0 -0 -0 -0 0 0 0 0 0 0 0 0 0 0 0 0 0 0 0 0 0 0 0 0 0 0 0 0 0 0 0 0 0 0 0 0 0 0 0 0 0 0 0 0
0 -0 -0 -0 -0 -0 -0 0 0 0 0 0 0 0 0 0 0 0 0 0 0 0 0 0 0 0 0 0 0 0 0 0 0 0 0 0 0 0 0 0 0 0 0 0
Wind_Speed_500mb
25 41 41 43 47 14 13 14 17 34 39 27 25 18 16 38 44 48 58 47 39 27 19 47 72 71 78 82 83 95 98 111 113 103 93 93 89 89 82 76 71 67 59 51
29 41 33 36 16 5 9 18 26 36 47 22 19 31 34 43 40 44 57 50 27 20 27 58 75 73 66 65 79 99 112 116 115 109 108 98 93 88 83 77 71 64 57 56
16 25 41 14 15 4 21 22 27 34 36 17 32 41 44 65 50 41 60 42 25 27 47 73 81 72 57 44 43 121 134 136 127 117 106 98 90 83 82 75 67 61 59 54
16 22 8 6 8 18 27 42 29 36 15 23 39 61 80 84 70 58 74 42 32 35 64 87 94 77 62 62 71 88 120 135 121 108 102 96 88 83 78 69 65 63 60 54
8 14 30 9 7 16 31 59 7 11 38 50 68 63 77 90 77 71 72 36 44 50 75 103 99 92 82 76 38 97 107 127 119 110 102 97 94 84 71 71 69 65 58 55
8 10 10 6 21 45 28 14 12 45 51 51 48 23 28 29 57 65 55 29 63 77 82 95 96 102 103 92 80 55 65 76 90 96 98 95 87 77 78 72 70 63 59 52
12 11 12 10 35 40 10 15 56 75 66 59 33 34 78 55 53 54 46 71 63 91 104 102 113 119 125 118 122 85 83 91 91 91 91 82 79 81 77 73 70 65 62 55
8 8 12 31 31 9 25 70 75 84 81 78 76 68 24 50 50 59 82 61 88 114 99 101 120 121 117 110 108 107 102 97 93 88 84 83 80 76 74 72 69 64 58 54
6 11 42 43 42 51 61 66 76 80 93 81 17 43 60 62 56 65 96 93 117 116 106 104 110 111 119 113 106 103 101 98 92 84 79 75 79 79 75 65 61 61 56 55
9 3 16 50 49 63 79 76 85 82 81 21 46 48 68 74 50 65 97 108 117 114 104 97 102 106 99 102 98 99 100 97 93 90 86 82 76 67 62 59 60 60 58 57
12 11 38 8 60 71 83 81 87 89 69 55 78 65 70 69 67 86 105 103 109 106 105 99 97 101 102 96 100 105 104 101 93 89 85 82 73 63 61 55 45 53 52 52
8 24 17 33 62 60 65 68 77 75 65 82 78 80 95 73 74 99 111 105 107 101 101 97 101 100 97 98 99 103 105 97 93 91 86 79 77 73 54 50 46 49 56 56
10 36 36 36 38 44 50 51 63 67 67 85 80 88 97 86 88 95 94 100 101 100 95 95 92 92 87 89 94 98 100 94 87 84 79 75 72 76 74 57 57 58 58 55
13 21 17 23 26 34 39 33 43 66 78 92 91 86 89 94 86 85 88 92 93 91 88 83 84 84 83 86 87 87 86 83 81 82 82 75 69 67 65 71 74 68 57 50
13 13 10 16 23 24 28 32 45 64 70 82 85 91 88 91 92 92 91 86 85 84 80 75 76 75 77 77 78 82 83 82 80 79 73 65 62 62 64 67 69 67 61 49
11 12 7 8 17 18 21 32 43 51 59 71 71 85 86 93 92 89 85 83 85 80 73 70 68 66 67 68 71 71 68 71 71 68 66 68 68 67 68 66 65 60 52 46
9 10 8 3 8 14 18 25 31 41 47 57 60 67 79 82 80 81 79 78 79 76 72 68 68 67 62 64 65 66 72 71 69 74 75 73 72 69 66 61 58 52 47 37
9 5 3 4 11 15 20 20 28 35 44 51 58 59 65 71 80 77 76 73 71 72 65 61 60 60 57 63 74 78 80 79 72 71 67 62 60 55 54 52 52 49 43 35
8 6 5 10 13 16 20 23 25 32 35 43 52 60 65 69 68 69 69 70 71 70 62 55 54 54 60 67 69 67 66 66 63 58 54 51 44 35 38 48 50 44 39 33
5 5 4 11 16 18 23 21 25 33 35 41 50 54 56 57 57 59 62 65 61 62 59 59 60 59 61 59 56 58 62 64 61 57 50 43 41 47 51 52 47 41 34 29
5 6 6 12 17 19 23 27 30 28 32 37 44 49 54 56 56 56 59 68 61 57 59 61 55 55 50 51 51 54 56 54 48 50 51 48 45 46 49 47 41 35 29 26
10 9 11 16 20 21 25 32 34 37 36 38 39 41 46 49 50 53 56 60 59 57 59 53 49 46 46 48 47 50 48 48 51 48 44 46 45 42 41 40 35 31 29 28
13 11 19 24 24 25 34 30 33 42 37 32 32 32 32 35 45 53 53 55 57 63 67 55 43 49 44 43 48 47 47 49 44 45 47 47 47 43 40 36 33 33 31 29
15 18 24 30 28 25 31 28 44 31 35 28 30 31 28 30 37 46 55 56 60 61 60 39 35 40 39 42 51 52 51 47 46 42 47 51 47 42 38 36 35 34 30 28
19 21 27 35 35 34 29 24 39 40 29 24 28 28 25 16 33 51 42 37 47 46 40 38 48 49 41 42 43 48 46 43 48 46 46 45 43 40 36 35 32 29 27 24
19 19 24 28 28 28 35 28 32 40 29 26 29 30 28 24 31 47 42 39 42 42 40 47 48 48 45 45 48 48 45 44 44 45 45 41 37 34 37 36 34 30 27 28
20 22 25 22 22 31 34 31 29 41 43 35 32 27 23 23 24 35 47 38 39 37 45 56 52 48 44 44 46 45 43 42 42 49 49 44 40 35 28 27 28 24 24 23
Wind_Direction_500mb
247 266 276 271 272 267 277 266 266 284 272 298 291 288 299 304 306 312 312 325 316 290 268 202 185 188 196 194 197 196 175 174 172 173 171 166 160 155 157 158 157 160 159 155
276 278 271 271 223 245 277 273 266 264 270 298 322 312 307 304 305 302 301 319 280 271 186 180 174 162 166 181 185 188 167 166 170 168 160 156 154 154 155 159 158 157 156 160
287 299 305 277 149 336 285 292 277 270 273 321 318 307 295 291 285 281 278 313 247 225 164 153 149 144 138 162 188 173 160 156 157 154 152 151 151 152 160 158 156 156 161 165
291 316 277 97 125 308 289 296 282 267 275 298 290 285 283 273 264 258 258 280 197 178 154 139 142 143 139 123 130 121 126 141 146 149 151 151 151 159 158 157 160 158 159 156
298 300 271 144 25 320 324 305 311 337 315 308 299 291 276 259 247 238 239 249 185 156 147 146 153 151 141 142 141 121 122 130 143 151 148 152 156 158 154 156 151 150 148 143
294 290 276 79 325 332 314 267 324 329 299 294 301 291 281 260 211 212 218 211 166 139 141 142 146 152 147 143 142 138 134 137 144 150 152 157 154 150 151 149 144 145 140 138
273 262 272 358 342 324 330 291 311 304 294 294 289 268 278 287 193 188 185 164 153 136 134 134 138 145 135 134 141 160 159 150 151 152 156 152 149 151 148 144 144 141 134 133
298 283 298 3 344 351 297 298 298 301 300 300 297 302 154 154 154 163 159 162 139 133 130 136 141 139 141 142 147 156 152 152 152 154 151 150 146 146 147 145 142 138 135 133
225 264 296 325 319 314 314 307 309 310 313 310 274 121 125 127 135 149 145 125 129 134 131 133 142 144 132 139 149 149 149 152 152 149 146 146 147 146 144 143 137 131 132 128
316 242 314 321 337 329 329 325 326 333 345 80 96 102 114 121 105 113 120 120 126 128 126 125 133 141 146 145 149 147 147 148 148 147 146 145 142 140 140 138 134 130 130 130
260 316 321 318 335 334 336 351 352 2 9 68 95 97 110 103 121 106 107 112 120 121 125 126 139 133 141 145 152 152 149 147 148 148 143 139 138 129 125 117 121 128 131 132
290 322 299 298 331 337 347 350 360 360 19 73 91 97 107 101 102 107 110 120 123 126 122 124 135 137 145 152 156 151 148 148 147 146 146 144 135 124 117 110 114 123 125 129
266 314 320 322 334 348 356 1 16 32 41 70 82 98 98 113 105 114 116 117 122 126 129 132 139 142 148 153 155 152 148 151 153 153 153 148 145 142 133 126 122 123 124 123
311 334 325 344 338 357 2 30 41 46 67 71 86 100 106 113 118 119 119 122 129 131 134 138 141 144 152 154 154 151 150 152 151 151 152 149 146 144 140 136 131 124 122 123
343 346 338 344 5 22 24 57 63 51 65 87 91 102 104 105 109 115 128 136 136 136 139 142 142 143 152 153 153 153 154 153 152 150 148 147 144 141 136 135 135 130 128 123
322 354 21 18 18 37 48 62 77 73 75 89 97 100 107 115 117 121 127 133 134 133 139 138 136 141 148 154 155 153 154 152 150 149 145 142 139 137 137 137 132 131 132 129
277 298 328 35 74 75 87 86 91 97 100 99 98 109 113 115 119 123 125 130 133 136 138 137 135 141 149 159 159 153 149 148 144 139 136 139 138 139 139 134 132 131 128 121
348 327 342 145 121 116 114 120 118 119 116 119 123 125 122 123 116 121 127 132 132 130 130 134 138 136 138 145 146 146 143 140 138 140 140 140 139 136 132 137 134 133 130 129
13 24 67 129 134 135 128 131 138 127 129 132 131 126 124 123 126 126 131 131 131 130 132 141 146 145 141 142 142 145 144 145 144 141 142 141 133 134 143 143 142 143 144 142
57 29 82 126 133 134 135 129 138 138 136 140 136 133 131 131 135 139 139 131 127 127 136 146 149 149 152 155 155 152 152 150 150 147 143 140 139 140 141 145 152 151 150 149
115 105 126 138 136 132 138 137 137 142 149 147 147 141 141 138 140 141 142 136 133 139 144 149 143 146 149 155 157 157 157 156 155 153 152 151 145 142 146 152 155 154 159 163
152 136 152 151 142 139 145 145 143 132 124 138 150 153 152 147 147 149 150 146 147 150 144 140 140 150 159 165 163 164 163 162 160 161 160 156 156 154 153 158 166 173 173 167
167 155 163 153 144 146 144 145 155 148 143 140 135 128 126 154 171 173 166 169 162 160 155 147 155 168 169 171 172 175 174 168 167 168 167 170 168 167 170 174 177 176 176 178
160 152 162 160 156 163 154 153 150 140 142 133 158 149 144 137 152 159 153 147 152 154 151 155 173 167 166 168 166 170 172 169 172 173 168 172 176 179 183 182 180 188 190 178
150 149 159 165 162 167 165 164 170 153 143 132 149 152 155 148 160 156 154 157 157 165 174 161 164 168 172 174 176 175 174 175 173 173 176 180 184 189 191 190 187 187 189 188
152 150 153 166 172 173 164 177 174 170 158 149 150 146 153 154 166 168 169 167 167 171 176 174 172 175 177 178 179 181 181 180 184 187 185 184 183 190 198 197 189 186 187 186
157 155 152 152 164 173 175 175 172 180 183 176 171 174 177 175 172 181 193 186 181 182 187 184 183 188 188 188 195 195 197 195 193 197 199 196 192 196 189 192 192 198 206 205
Wind_Speed_850mb
25 41 41 43 47 14 13 14 17 34 39 27 25 18 16 38 44 48 58 47 39 27 19 47 72 71 78 82 83 95 98 111 113 103 93 93 89 89 82 76 71 67 59 51
29 41 33 36 16 5 9 18 26 36 47 22 19 31 34 43 40 44 57 50 27 20 27 58 75 73 66 65 79 99 112 116 115 109 108 98 93 88 83 77 71 64 57 56
16 25 41 14 15 4 21 22 27 34 36 17 32 41 44 65 50 41 60 42 25 27 47 73 81 72 57 44 43 121 134 136 127 117 106 98 90 83 82 75 67 61 59 54
16 22 8 6 8 18 27 42 29 36 15 23 39 61 80 84 70 58 74 42 32 35 64 87 94 77 62 62 71 88 120 135 121 108 102 96 88 83 78 69 65 63 60 54
8 14 30 9 7 16 31 59 7 11 38 50 68 63 77 90 77 71 72 36 44 50 75 103 99 92 82 76 38 97 107 127 119 110 102 97 94 84 71 71 69 65 58 55
8 10 10 6 21 45 28 14 12 45 51 51 48 23 28 29 57 65 55 29 63 77 82 95 96 102 103 92 80 55 65 76 90 96 98 95 87 77 78 72 70 63 59 52
12 11 12 10 35 40 10 15 56 75 66 59 33 34 78 55 53 54 46 71 63 91 104 102 113 119 125 118 122 85 83 91 91 91 91 82 79 81 77 73 70 65 62 55
8 8 12 31 31 9 25 70 75 84 81 78 76 68 24 50 50 59 82 61 88 114 99 101 120 121 117 110 108 107 102 97 93 88 84 83 80 76 74 72 69 64 58 54
6 11 42 43 42 51 61 66 76 80 93 81 17 43 60 62 56 65 96 93 117 116 106 104 110 111 119 113 106 103 101 98 92 84 79 75 79 79 75 65 61 61 56 55
9 3 16 50 49 63 79 76 85 82 81 21 46 48 68 74 50 65 97 108 117 114 104 97 102 106 99 102 98 99 100 97 93 90 86 82 76 67 62 59 60 60 58 57
12 11 38 8 60 71 83 81 87 89 69 55 78 65 70 69 67 86 105 103 109 106 105 99 97 101 102 96 100 105 104 101 93 89 85 82 73 63 61 55 45 53 52 52
8 24 17 33 62 60 65 68 77 75 65 82 78 80 95 73 74 99 111 105 107 101 101 97 101 100 97 98 99 103 105 97 93 91 86 79 77 73 54 50 46 49 56 56
10 36 36 36 38 44 50 51 63 67 67 85 80 88 97 86 88 95 94 100 101 100 95 95 92 92 87 89 94 98 100 94 87 84 79 75 72 76 74 57 57 58 58 55
13 21 17 23 26 34 39 33 43 66 78 92 91 86 89 94 86 85 88 92 93 91 88 83 84 84 83 86 87 87 86 83 81 82 82 75 69 67 65 71 74 68 57 50
13 13 10 16 23 24 28 32 45 64 70 82 85 91 88 91 92 92 91 86 85 84 80 75 76 75 77 77 78 82 83 82 80 79 73 65 62 62 64 67 69 67 61 49
11 12 7 8 17 18 21 32 43 51 59 71 71 85 86 93 92 89 85 83 85 80 73 70 68 66 67 68 71 71 68 71 71 68 66 68 68 67 68 66 65 60 52 46
9 10 8 3 8 14 18 25 31 41 47 57 60 67 79 82 80 81 79 78 79 76 72 68 68 67 62 64 65 66 72 71 69 74 75 73 72 69 66 61 58 52 47 37
9 5 3 4 11 15 20 20 28 35 44 51 58 59 65 71 80 77 76 73 71 72 65 61 60 60 57 63 74 78 80 79 72 71 67 62 60 55 54 52 52 49 43 35
8 6 5 10 13 16 20 23 25 32 35 43 52 60 65 69 68 69 69 70 71 70 62 55 54 54 60 67 69 67 66 66 63 58 54 51 44 35 38 48 50 44 39 33
5 5 4 11 16 18 23 21 25 33 35 41 50 54 56 57 57 59 62 65 61 62 59 59 60 59 61 59 56 58 62 64 61 57 50 43 41 47 51 52 47 41 34 29
5 6 6 12 17 19 23 27 30 28 32 37 44 49 54 56 56 56 59 68 61 57 59 61 55 55 50 51 51 54 56 54 48 50 51 48 45 46 49 47 41 35 29 26
10 9 11 16 20 21 25 32 34 37 36 38 39 41 46 49 50 53 56 60 59 57 59 53 49 46 46 48 47 50 48 48 51 48 44 46 45 42 41 40 35 31 29 28
13 11 19 24 24 25 34 30 33 42 37 32 32 32 32 35 45 53 53 55 57 63 67 55 43 49 44 43 48 47 47 49 44 45 47 47 47 43 40 36 33 33 31 29
15 18 24 30 28 25 31 28 44 31 35 28 30 31 28 30 37 46 55 56 60 61 60 39 35 40 39 42 51 52 51 47 46 42 47 51 47 42 38 36 35 34 30 28
19 21 27 35 35 34 29 24 39 40 29 24 28 28 25 16 33 51 42 37 47 46 40 38 48 49 41 42 43 48 46 43 48 46 46 45 43 40 36 35 32 29 27 24
19 19 24 28 28 28 35 28 32 40 29 26 29 30 28 24 31 47 42 39 42 42 40 47 48 48 45 45 48 48 45 44 44 45 45 41 37 34 37 36 34 30 27 28
20 22 25 22 22 31 34 31 29 41 43 35 32 27 23 23 24 35 47 38 39 37 45 56 52 48 44 44 46 45 43 42 42 49 49 44 40 35 28 27 28 24 24 23
Wind_Direction_850mb
247 266 276 271 272 267 277 266 266 284 272 298 291 288 299 304 306 312 312 325 316 290 268 202 185 188 196 194 197 196 175 174 172 173 171 166 160 155 157 158 157 160 159 155
276 278 271 271 223 245 277 273 266 264 270 298 322 312 307 304 305 302 301 319 280 271 186 180 174 162 166 181 185 188 167 166 170 168 160 156 154 154 155 159 158 157 156 160
287 299 305 277 149 336 285 292 277 270 273 321 318 307 295 291 285 281 278 313 247 225 164 153 149 144 138 162 188 173 160 156 157 154 152 151 151 152 160 158 156 156 161 165
291 316 277 97 125 308 289 296 282 267 275 298 290 285 283 273 264 258 258 280 197 178 154 139 142 143 139 123 130 121 126 141 146 149 151 151 151 159 158 157 160 158 159 156
298 300 271 144 25 320 324 305 311 337 315 308 299 291 276 259 247 238 239 249 185 156 147 146 153 151 141 142 141 121 122 130 143 151 148 152 156 158 154 156 151 150 148 143
294 290 276 79 325 332 314 267 324 329 299 294 301 291 281 260 211 212 218 211 166 139 141 142 146 152 147 143 142 138 134 137 144 150 152 157 154 150 151 149 144 145 140 138
273 262 272 358 342 324 330 291 311 304 294 294 289 268 278 287 193 188 185 164 153 136 134 134 138 145 135 134 141 160 159 150 151 152 156 152 149 151 148 144 144 141 134 133
298 283 298 3 344 351 297 298 298 301 300 300 297 302 154 154 154 163 159 162 139 133 130 136 141 139 141 142 147 156 152 152 152 154 151 150 146 146 147 145 142 138 135 133
225 264 296 325 319 314 314 307 309 310 313 310 274 121 125 127 135 149 145 125 129 134 131 133 142 144 132 139 149 149 149 152 152 149 146 146 147 146 144 143 137 131 132 128
316 242 314 321 337 329 329 325 326 333 345 80 96 102 114 121 105 113 120 120 126 128 126 125 133 141 146 145 149 147 147 148 148 147 146 145 142 140 140 138 134 130 130 130
260 316 321 318 335 334 336 351 352 2 9 68 95 97 110 103 121 106 107 112 120 121 125 126 139 133 141 145 152 152 149 147 148 148 143 139 138 129 125 117 121 128 131 132
290 322 299 298 331 337 347 350 360 360 19 73 91 97 107 101 102 107 110 120 123 126 122 124 135 137 145 152 156 151 148 148 147 146 146 144 135 124 117 110 114 123 125 129
266 314 320 322 334 348 356 1 16 32 41 70 82 98 98 113 105 114 116 117 122 126 129 132 139 142 148 153 155 152 148 151 153 153 153 148 145 142 133 126 122 123 124 123
311 334 325 344 338 357 2 30 41 46 67 71 86 100 106 113 118 119 119 122 129 131 134 138 141 144 152 154 154 151 150 152 151 151 152 149 146 144 140 136 131 124 122 123
343 346 338 344 5 22 24 57 63 51 65 87 91 102 104 105 109 115 128 136 136 136 139 142 142 143 152 153 153 153 154 153 152 150 148 147 144 141 136 135 135 130 128 123
322 354 21 18 18 37 48 62 77 73 75 89 97 100 107 115 117 121 127 133 134 133 139 138 136 141 148 154 155 153 154 152 150 149 145 142 139 137 137 137 132 131 132 129
277 298 328 35 74 75 87 86 91 97 100 99 98 109 113 115 119 123 125 130 133 136 138 137 135 141 149 159 159 153 149 148 144 139 136 139 138 139 139 134 132 131 128 121
348 327 342 145 121 116 114 120 118 119 116 119 123 125 122 123 116 121 127 132 132 130 130 134 138 136 138 145 146 146 143 140 138 140 140 140 139 136 132 137 134 133 130 129
13 24 67 129 134 135 128 131 138 127 129 132 131 126 124 123 126 126 131 131 131 130 132 141 146 145 141 142 142 145 144 145 144 141 142 141 133 134 143 143 142 143 144 142
57 29 82 126 133 134 135 129 138 138 136 140 136 133 131 131 135 139 139 131 127 127 136 146 149 149 152 155 155 152 152 150 150 147 143 140 139 140 141 145 152 151 150 149
115 105 126 138 136 132 138 137 137 142 149 147 147 141 141 138 140 141 142 136 133 139 144 149 143 146 149 155 157 157 157 156 155 153 152 151 145 142 146 152 155 154 159 163
152 136 152 151 142 139 145 145 143 132 124 138 150 153 152 147 147 149 150 146 147 150 144 140 140 150 159 165 163 164 163 162 160 161 160 156 156 154 153 158 166 173 173 167
167 155 163 153 144 146 144 145 155 148 143 140 135 128 126 154 171 173 166 169 162 160 155 147 155 168 169 171 172 175 174 168 167 168 167 170 168 167 170 174 177 176 176 178
160 152 162 160 156 163 154 153 150 140 142 133 158 149 144 137 152 159 153 147 152 154 151 155 173 167 166 168 166 170 172 169 172 173 168 172 176 179 183 182 180 188 190 178
150 149 159 165 162 167 165 164 170 153 143 132 149 152 155 148 160 156 154 157 157 165 174 161 164 168 172 174 176 175 174 175 173 173 176 180 184 189 191 190 187 187 189 188
152 150 153 166 172 173 164 177 174 170 158 149 150 146 153 154 166 168 169 167 167 171 176 174 172 175 177 178 179 181 181 180 184 187 185 184 183 190 198 197 189 186 187 186
157 155 152 152 164 173 175 175 172 180 183 176 171 174 177 175 172 181 193 186 181 182 187 184 183 188 188 188 195 195 197 195 193 197 199 196 192 196 189 192 192 198 206 205